• In Hungary
  • List of Countries
  • For 7 days
  • Water Temperature
  • Satellite Maps
  • Weather Map
  • News
  • Weather Widgets
  • user-avatar
    Login

    Hourly Weather Tarija

    Today, 19 October, Friday

    Time Temperature Precipitation Wind Pressure Humidity
    00:00 +20°C° 1 mm 2 mps 597 mmHg 82%
    01:00 +19°C° 1 mm 2 mps 597 mmHg 82%
    02:00 +19°C° 1 mm 2 mps 597 mmHg 82%
    03:00 +19°C° 1 mm 2 mps 597 mmHg 85%
    04:00 +18°C° 1 mm 2 mps 597 mmHg 87%
    05:00 +18°C° 1 mm 2 mps 597 mmHg 89%
    06:00 +19°C° 0.3 mm 2 mps 597 mmHg 84%
    07:00 +20°C° 0.3 mm 2 mps 598 mmHg 78%
    08:00 +22°C° 0.3 mm 1 mps 599 mmHg 72%
    09:00 +23°C° 0.7 mm 2 mps 599 mmHg 71%
    10:00 +22°C° 0.7 mm 3 mps 599 mmHg 70%
    11:00 +23°C° 0.7 mm 4 mps 599 mmHg 69%
    12:00 +23°C° 0.8 mm 4 mps 598 mmHg 70%
    13:00 +23°C° 0.8 mm 4 mps 598 mmHg 71%
    14:00 +23°C° 0.8 mm 4 mps 597 mmHg 72%
    15:00 +21°C° 0.7 mm 5 mps 597 mmHg 78%
    16:00 +20°C° 0.7 mm 5 mps 596 mmHg 83%
    17:00 +19°C° 0.7 mm 5 mps 596 mmHg 89%
    18:00 +17°C° 0.2 mm 5 mps 597 mmHg 89%
    19:00 +18°C° 0.2 mm 4 mps 597 mmHg 89%
    20:00 +17°C° 0.2 mm 4 mps 598 mmHg 89%
    21:00 +17°C° 0.2 mm 3 mps 598 mmHg 87%
    22:00 +17°C° 0.2 mm 3 mps 598 mmHg 86%
    23:00 +17°C° 0.2 mm 2 mps 598 mmHg 84%

    Tomorrow, 20 October, Saturday

    Time Temperature Precipitation Wind Pressure Humidity
    00:00 +17°C° 0.1 mm 2 mps 598 mmHg 84%
    01:00 +16°C° 0.1 mm 2 mps 598 mmHg 84%
    02:00 +16°C° 0.1 mm 2 mps 597 mmHg 84%
    03:00 +16°C° 0.1 mm 2 mps 597 mmHg 84%
    04:00 +16°C° 0.1 mm 1 mps 597 mmHg 85%
    05:00 +16°C° 0.1 mm 1 mps 597 mmHg 85%
    06:00 +18°C° 0 mm 1 mps 598 mmHg 82%
    07:00 +18°C° 0 mm 1 mps 598 mmHg 78%
    08:00 +19°C° 0 mm 1 mps 599 mmHg 75%
    09:00 +19°C° 0 mm 2 mps 599 mmHg 71%
    10:00 +21°C° 0 mm 2 mps 599 mmHg 68%
    11:00 +23°C° 0 mm 2 mps 599 mmHg 64%
    12:00 +22°C° 0.1 mm 3 mps 599 mmHg 64%
    13:00 +24°C° 0.1 mm 3 mps 598 mmHg 64%
    14:00 +24°C° 0.1 mm 3 mps 597 mmHg 64%
    15:00 +22°C° 0.3 mm 3 mps 596 mmHg 68%
    16:00 +22°C° 0.3 mm 3 mps 596 mmHg 72%
    17:00 +21°C° 0.3 mm 3 mps 595 mmHg 77%
    18:00 +20°C° 0.8 mm 3 mps 596 mmHg 81%
    19:00 +20°C° 0.8 mm 3 mps 596 mmHg 85%
    20:00 +19°C° 0.8 mm 2 mps 596 mmHg 90%
    21:00 +19°C° 0.4 mm 2 mps 597 mmHg 90%
    22:00 +20°C° 0.4 mm 1 mps 597 mmHg 91%
    23:00 +19°C° 0.4 mm 1 mps 597 mmHg 91%

    Day after tomorrow, 21 October, Sunday

    Time Temperature Precipitation Wind Pressure Humidity
    00:00 +19°C° 0.2 mm 1 mps 597 mmHg 92%
    01:00 +19°C° 0.2 mm 1 mps 596 mmHg 92%
    02:00 +19°C° 0.2 mm 1 mps 596 mmHg 92%
    03:00 +19°C° 0.1 mm 1 mps 596 mmHg 93%
    04:00 +19°C° 0.1 mm 1 mps 596 mmHg 93%
    05:00 +19°C° 0.1 mm 1 mps 596 mmHg 93%
    06:00 +19°C° 0.1 mm 1 mps 596 mmHg 92%
    07:00 +19°C° 0.1 mm 1 mps 597 mmHg 90%
    08:00 +20°C° 0.1 mm 1 mps 597 mmHg 89%
    09:00 +20°C° 0.1 mm 2 mps 598 mmHg 82%
    10:00 +21°C° 0.1 mm 2 mps 598 mmHg 76%
    11:00 +23°C° 0.1 mm 2 mps 598 mmHg 69%
    12:00 +24°C° 0.6 mm 2 mps 597 mmHg 68%
    13:00 +24°C° 0.6 mm 3 mps 597 mmHg 67%
    14:00 +24°C° 0.6 mm 3 mps 596 mmHg 65%
    15:00 +24°C° 1.1 mm 3 mps 596 mmHg 70%
    16:00 +22°C° 1.1 mm 3 mps 595 mmHg 75%
    17:00 +21°C° 1.1 mm 4 mps 595 mmHg 79%
    18:00 +21°C° 0.4 mm 3 mps 595 mmHg 83%
    19:00 +20°C° 0.4 mm 3 mps 595 mmHg 87%
    20:00 +19°C° 0.4 mm 2 mps 596 mmHg 91%
    21:00 +19°C° 0.2 mm 2 mps 596 mmHg 91%
    22:00 +19°C° 0.2 mm 2 mps 596 mmHg 91%
    23:00 +19°C° 0.2 mm 2 mps 596 mmHg 91%

    22 October, Monday

    Time Temperature Precipitation Wind Pressure Humidity
    00:00 +19°C° 0.1 mm 2 mps 596 mmHg 91%
    01:00 +19°C° 0.1 mm 1 mps 595 mmHg 92%
    02:00 +19°C° 0.1 mm 1 mps 595 mmHg 92%
    03:00 +19°C° 0.5 mm 1 mps 595 mmHg 92%
    04:00 +18°C° 0.5 mm 2 mps 595 mmHg 93%
    05:00 +18°C° 0.5 mm 2 mps 595 mmHg 93%
    06:00 +19°C° 0.2 mm 2 mps 595 mmHg 87%
    07:00 +20°C° 0.2 mm 2 mps 596 mmHg 81%
    08:00 +21°C° 0.2 mm 2 mps 597 mmHg 76%
    09:00 +23°C° 0.8 mm 2 mps 597 mmHg 69%
    10:00 +25°C° 0.8 mm 3 mps 597 mmHg 62%
    11:00 +26°C° 0.8 mm 3 mps 597 mmHg 55%
    12:00 +27°C° 0.8 mm 4 mps 597 mmHg 54%
    13:00 +27°C° 0.8 mm 4 mps 596 mmHg 53%
    14:00 +28°C° 0.8 mm 5 mps 596 mmHg 52%
    15:00 +27°C° 0.7 mm 5 mps 595 mmHg 57%
    16:00 +26°C° 0.7 mm 5 mps 595 mmHg 61%
    17:00 +25°C° 0.7 mm 5 mps 594 mmHg 66%
    18:00 +23°C° 0.2 mm 4 mps 594 mmHg 70%
    19:00 +22°C° 0.2 mm 3 mps 595 mmHg 74%
    20:00 +21°C° 0.2 mm 3 mps 595 mmHg 78%
    21:00 +21°C° 0.2 mm 2 mps 595 mmHg 82%
    22:00 +20°C° 0.2 mm 2 mps 595 mmHg 85%
    23:00 +21°C° 0.2 mm 1 mps 595 mmHg 88%

    23 October, Tuesday

    Time Temperature Precipitation Wind Pressure Humidity
    00:00 +20°C° 0.1 mm 1 mps 595 mmHg 89%
    01:00 +20°C° 0.1 mm 1 mps 594 mmHg 90%
    02:00 +20°C° 0.1 mm 1 mps 594 mmHg 90%
    03:00 +20°C° 0.3 mm 1 mps 594 mmHg 91%
    04:00 +19°C° 0.3 mm 1 mps 594 mmHg 92%
    05:00 +19°C° 0.3 mm 1 mps 594 mmHg 92%
    06:00 +19°C° 0.4 mm 2 mps 595 mmHg 90%
    07:00 +19°C° 0.4 mm 3 mps 595 mmHg 88%
    08:00 +19°C° 0.4 mm 3 mps 596 mmHg 86%
    09:00 +19°C° 0.9 mm 3 mps 596 mmHg 86%
    10:00 +19°C° 0.9 mm 3 mps 596 mmHg 86%
    11:00 +19°C° 0.9 mm 3 mps 596 mmHg 86%
    12:00 +19°C° 1.1 mm 3 mps 596 mmHg 86%
    13:00 +19°C° 1.1 mm 3 mps 595 mmHg 87%
    14:00 +19°C° 1.1 mm 4 mps 595 mmHg 88%
    15:00 +19°C° 1.6 mm 4 mps 595 mmHg 89%
    16:00 +18°C° 1.6 mm 4 mps 595 mmHg 91%
    17:00 +18°C° 1.6 mm 4 mps 595 mmHg 92%
    18:00 +18°C° 1.3 mm 3 mps 595 mmHg 93%
    19:00 +17°C° 1.3 mm 3 mps 596 mmHg 93%
    20:00 +17°C° 1.3 mm 3 mps 596 mmHg 94%
    21:00 +17°C° 2.6 mm 3 mps 597 mmHg 94%
    22:00 +16°C° 2.6 mm 3 mps 597 mmHg 94%
    23:00 +16°C° 2.6 mm 3 mps 597 mmHg 94%

    24 October, Wednesday

    Time Temperature Precipitation Wind Pressure Humidity
    00:00 +16°C° 1.8 mm 3 mps 596 mmHg 94%
    01:00 +16°C° 1.8 mm 3 mps 596 mmHg 94%
    02:00 +16°C° 1.8 mm 2 mps 596 mmHg 93%
    03:00 +16°C° 0.8 mm 2 mps 596 mmHg 93%
    04:00 +15°C° 0.8 mm 2 mps 596 mmHg 93%
    05:00 +15°C° 0.8 mm 2 mps 596 mmHg 93%
    06:00 +16°C° 0.3 mm 2 mps 596 mmHg 92%
    07:00 +16°C° 0.3 mm 2 mps 596 mmHg 92%
    08:00 +16°C° 0.3 mm 2 mps 597 mmHg 91%
    09:00 +17°C° 0.2 mm 2 mps 597 mmHg 88%
    10:00 +17°C° 0.2 mm 2 mps 597 mmHg 85%
    11:00 +18°C° 0.2 mm 2 mps 597 mmHg 82%
    12:00 +19°C° 0.2 mm 2 mps 596 mmHg 79%
    13:00 +20°C° 0.2 mm 3 mps 596 mmHg 76%
    14:00 +20°C° 0.2 mm 3 mps 596 mmHg 73%
    15:00 +20°C° 0.2 mm 3 mps 595 mmHg 75%
    16:00 +20°C° 0.2 mm 3 mps 595 mmHg 78%
    17:00 +19°C° 0.2 mm 3 mps 594 mmHg 80%
    18:00 +19°C° 0.2 mm 2 mps 595 mmHg 84%
    19:00 +18°C° 0.2 mm 2 mps 595 mmHg 88%
    20:00 +18°C° 0.2 mm 2 mps 595 mmHg 92%
    21:00 +17°C° 0.1 mm 2 mps 596 mmHg 92%
    22:00 +18°C° 0.1 mm 1 mps 596 mmHg 93%
    23:00 +18°C° 0.1 mm 1 mps 596 mmHg 93%
    Show more